Regional Weather Roundup
Issued by NWS State College, PA

Home | Current Version | Previous Version | Text Only | Print | Product List | Glossary On
Versions: 1 2 3 4 5 6 7 8 9 10 11 12 13 14 15 16 17 18 19 20 21 22 23 24 25 26 27 28 29 30 31 32 33 34 35 36 37 38 39 40 41 42 43 44 45 46 47 48 49 50
000
ASUS41 KCTP 012210
RWRCTP

REGIONAL WEATHER ROUNDUP
NATIONAL WEATHER SERVICE STATE COLLEGE PA
600 PM EDT WED APR 01 2015

Note: "fair" indicates few or no clouds below 12,000 feet with no
significant weather and/or obstructions to visibility.

* = STATION THAT DOES NOT REPORT PRECIPITATION /E.G. RAIN...SNOW...ETC/
    THUNDER OR FOG.

PAZ002>004-007>009-013>016-020>023-029>032-012300-
WESTERN PENNSYLVANIA

CITY           SKY/WX    TMP DP  RH WIND       PRES   REMARKS
ERIE           SUNNY     47  31  53 N6        30.12F
MEADVILLE      SUNNY     51  31  46 SW6       30.10F
FRANKLIN*      SUNNY     52  30  43 W10       30.13S
NEW CASTLE     FAIR      56  30  37 SW5       30.12F
BEAVER COUNTY  MOSUNNY   55  28  35 W6        30.11
BUTLER*        SUNNY     55  27  33 NW7       30.13F
PITTSBURGH INT MOSUNNY   57  26  30 NW7       30.11F
PITTSBURGH     SUNNY     58  20  22 VRB3      30.11S
INDIANA*       SUNNY     54  28  37 N10       30.16S
LATROBE        MOSUNNY   54  25  32 W17       30.14F
WASHINGTON CO* SUNNY     59  27  29 SW5       30.14S
$$

PAZ004>006-010>012-017>019-024>028-033>037-041-042-045-046-049>053-012300-
CENTRAL PENNSYLVANIA

CITY           SKY/WX    TMP DP  RH WIND       PRES   REMARKS
BRADFORD       SUNNY     40  28  62 VRB5      30.12S
DUBOIS         MOSUNNY   49  30  48 S3        30.11F
CLEARFIELD     SUNNY     48  31  51 W9        30.14S
JOHNSTOWN      SUNNY     49  24  37 W13       30.11S
ALTOONA        MOSUNNY   51  26  37 NW12G17   30.13S
STATE COLLEGE  MOSUNNY   48  30  49 CALM      30.15S
WILLIAMSPORT   SUNNY     51  28  41 W16       30.13S
SELINSGROVE    MOSUNNY   51  30  44 NW8       30.15S
FT INDIANTOWN  MOSUNNY   52  27  37 NW9       30.14R
CAPITAL CITY   MOSUNNY   53  27  36 N9        30.15R
HARRISBURG     MOSUNNY   54  27  35 NW14      30.15R
YORK           MOSUNNY   54  26  34 NW14      30.15R
$$

PAZ038>040-043-044-047-048-054-055-060>062-067>071-012300-
EASTERN PENNSYLVANIA

CITY           SKY/WX    TMP DP  RH WIND       PRES   REMARKS
SCRANTON       SUNNY     48  21  34 NW10      30.12S
MOUNT POCONO   SUNNY     41  16  36 NW16G25   30.08R
ALLENTOWN      SUNNY     50  26  39 NW13      30.14R
QUAKERTOWN*    CLEAR     50  25  37 NW9       30.14R
READING        SUNNY     52  19  27 NW13      30.14R
LANCASTER      SUNNY     52  25  35 NW12      30.14R
COATESVILLE    CLEAR     50  23  34 N13G18    30.14R
POTTSTOWN      SUNNY     51  22  31 NW10G18   30.15R
BLUE BELL      SUNNY     54  23  30 NW8G17    30.13R
DOYLESTOWN     SUNNY     50  24  36 NW13G21   30.12R
WILLOW GROVE   NOT AVBL
NORTH PHILA    SUNNY     55  20  25 NW14      30.14R
PHILADELPHIA   MOSUNNY   56  16  20 NW12      30.14R
$$



USA.gov is the U.S. government's official web portal to all federal, state and local government web resources and services.